This is the latest recevied weather packets stored in our database for station/object HUGOCO. If no packets are shown the sender has not sent any weather packets the latest 1 day(s).
| Time | Temp. | Humidity | Pressure | Rain* | Wind** | Luminosity | Snow |
|---|---|---|---|---|---|---|---|
| 1778012760 | 2.22° C | 92% | 1013.8 hPa | 0.25 mm | 4.02 m/s, 359° | - | - |
| 1778011860 | 2.78° C | 92% | 1013.7 hPa | 0.25 mm | 4.02 m/s, 359° | - | - |
| 1778010960 | 2.78° C | 92% | 1013.6 hPa | 0.25 mm | 2.68 m/s, 359° | - | - |
| 1778010061 | 2.78° C | 92% | 1013.4 hPa | 0 mm | 3.58 m/s, 359° | - | - |
| 1778009196 | 2.78° C | 92% | 1013.5 hPa | 0 mm | 4.02 m/s, 359° | - | - |
| 1778009163 | 2.78° C | 92% | 1013.5 hPa | 0 mm | 4.02 m/s, 359° | - | - |
| 1778008260 | 2.78° C | 92% | 1013.4 hPa | 0 mm | 3.58 m/s, 359° | - | - |
| 1778007360 | 2.22° C | 92% | 1013.4 hPa | 0 mm | 3.58 m/s, 359° | - | - |
| 1778006461 | 2.22° C | 92% | 1013.4 hPa | 0 mm | 4.02 m/s, 359° | - | - |
| 1778005560 | 2.22° C | 91% | 1013.5 hPa | 0 mm | 4.47 m/s, 359° | - | - |
| 1778004907 | 2.22° C | 91% | 1013.5 hPa | 0 mm | 5.36 m/s, 359° | - | - |
| 1778004660 | 2.22° C | 91% | 1013.5 hPa | 0 mm | 5.36 m/s, 359° | - | - |
| 1778003760 | 2.22° C | 92% | 1013.7 hPa | 0.25 mm | 5.36 m/s, 359° | - | - |
| 1778002861 | 2.22° C | 92% | 1013.6 hPa | 0.25 mm | 4.92 m/s, 359° | - | - |
| 1778002562 | 2.22° C | 92% | 1013.6 hPa | 0.25 mm | 4.92 m/s, 359° | - | - |
| 1778002258 | 2.22° C | 92% | 1013.5 hPa | 0.25 mm | 4.92 m/s, 359° | - | - |
| 1778001958 | 2.22° C | 92% | 1013.6 hPa | 0.51 mm | 4.92 m/s, 359° | - | - |
| 1778001658 | 2.22° C | 92% | 1013.6 hPa | 0.51 mm | 4.92 m/s, 359° | - | - |
| 1778001060 | 2.22° C | 91% | 1013.6 hPa | 0.51 mm | 4.92 m/s, 359° | - | - |
| 1778000758 | 2.22° C | 91% | 1013.5 hPa | 0.25 mm | 4.92 m/s, 359° | - | - |
| 1778000458 | 2.22° C | 91% | 1013.5 hPa | 0.25 mm | 4.47 m/s, 359° | - | - |
| 1778000158 | 2.22° C | 91% | 1013.5 hPa | 0.25 mm | 4.47 m/s, 359° | - | - |
| 1777999858 | 2.22° C | 91% | 1013.4 hPa | 0.25 mm | 4.92 m/s, 359° | - | - |
| 1777999558 | 2.22° C | 91% | 1013.5 hPa | 0.25 mm | 4.92 m/s, 359° | - | - |
| 1777999258 | 2.22° C | 91% | 1013.3 hPa | 0.25 mm | 4.47 m/s, 359° | - | - |
* Rain latest hour (hover to see other rain measurements)
** Current wind speed in m/s (hover to see current wind gust speed)